Location: Bemmer
(51.5498°N, 5.6249°E)
Time: 01:02:07
(UTC+00:00)

Meteor 1-5 Rocket - Pass Details

Date: 03 March 2021
Orbit: 790 x 914 km, 81.2° (Epoch: 13 April)

Event Time Altitude Azimuth Distance (km) Brightness Sun altitude
Rises 18:31:52 0° 169° (SSE) 3,293 7.1 -11.7°
Reaches altitude 10° 18:34:19 10° 162° (SSE) 2,379 6.3 -12.1°
Maximum altitude 18:39:20 42° 93° (E) 1,149 4.4 -12.9°
Drops below altitude 10° 18:44:32 10° 24° (NNE) 2,462 6.5 -13.7°
Sets 18:47:05 0° 18° (NNE) 3,421 7.3 -14.1°
